Regional Weather Roundup
Issued by NWS

Home | Current Version | Previous Version | Graphics & Text | Print | Product List | Glossary On
Versions: 1 2 3 4 5 6 7 8 9 10 11 12 13 14 15 16 17 18 19 20 21 22 23 24 25 26 27 28 29 30 31 32 33 34 35 36 37 38 39 40 41 42 43 44 45 46 47 48 49 50
000
ASUS43 KBIS 200610
RWRND

NORTH DAKOTA REGIONAL WEATHER ROUNDUP
NATIONAL WEATHER SERVICE BISMARCK ND
100 AM CDT WED SEP 20 2017

NOTE: "FAIR" INDICATES FEW OR NO CLOUDS BELOW 12,000 FEET WITH NO
SIGNIFICANT WEATHER AND/OR OBSTRUCTIONS TO VISIBILITY.


NDZ001>003-009>011-017-200700-
NORTHWEST NORTH DAKOTA

CITY           SKY/WX    TMP DP  RH WIND       PRES   REMARKS
WILLISTON      PTCLDY    47  41  80 W7        29.57S
6HR MIN TEMP:  47; 6HR MAX TEMP:  58; 6HR PCP: TRACE;

MINOT          CLOUDY    53  47  79 W12       29.52F
MINOT AFB      CLOUDY    51  48  89 W9        29.51F
$$

NDZ018>021-031>035-040>046-200700-
SOUTHWEST NORTH DAKOTA

CITY           SKY/WX    TMP DP  RH WIND       PRES   REMARKS
BISMARCK       PTCLDY    51  46  83 W12       29.58F
6HR MIN TEMP:  51; 6HR MAX TEMP:  64; 6HR PCP: TRACE;

DICKINSON      CLEAR     43  40  89 SW12      29.62R
GARRISON         N/A     49  44  83 W12       29.56R
6HR MIN TEMP:  49; 6HR MAX TEMP:  59; 6HR PCP:  0.03;

HETTINGER ARPT CLEAR     41  38  89 W7        29.68R
$$

NDZ004>008-012>016-024-026-027-054-200700-
NORTHEAST NORTH DAKOTA

CITY           SKY/WX    TMP DP  RH WIND       PRES   REMARKS
GRAND FORKS    LGT RAIN  65  64  97 SW5       29.45R
GRND FRKS AFB  CLOUDY    63  63 100 SW3       29.44F
DEVILS LAKE    CLOUDY    57  55  93 W7        29.47F
$$

NDZ022-023-025-028>030-036>039-047>053-200700-
SOUTHEAST NORTH DAKOTA

CITY           SKY/WX    TMP DP  RH WIND       PRES   REMARKS
FARGO          CLOUDY    63  62  97 CALM      29.48R
6HR MIN TEMP:  62; 6HR MAX TEMP:  74; 6HR PCP:  0.35;

JAMESTOWN      CLOUDY    57  52  83 N6        29.47F
$$





USA.gov is the U.S. government's official web portal to all federal, state and local government web resources and services.